[[{"header":{"parameterUnit":"m.s-1","parameterCategory":1,"la1":30.2991,"la2":30.254,"lo1":-89.0895,"lo2":-89.0444,"dy":0.0017,"dx":0.0017,"nx":28,"ny":28,"refTime":"2024-08-31T21:00:00:Z","depth":0,"parameterNumber":2,"parameterNumberName":"U-component_of_WINDS"},"data":[0,0,0,0,0,0,0,0,0,0,0,0,0,0,0,0,0,0,0,0,0,0,0,0,0,0,0,0,0,0,0,0,0,0,0,0,0,0,0,0,0,0,0,0,0,0,0,0,0,0,0,0,0,0,0,0,0,0,-2.0381,-2.038,0,-2.0271,-2.027,-2.0269,-2.0159,-2.0157,-2.0156,-2.0155,-2.0042,-2.0041,-2.0039,0,0,0,0,0,0,0,0,0,0,0,0,0,-2.0502,-2.05,-2.0381,-2.038,-2.0379,-2.0271,-2.027,-2.0268,-2.0159,-2.0157,-2.0156,-2.0154,-2.0043,-2.0041,-2.0039,0,0,0,0,0,0,0,0,0,0,0,0,0,-2.0426,-2.0499,-2.0382,-2.0311,-2.0304,-2.0272,-2.027,-2.0268,-2.016,-2.0157,-2.0155,-2.0153,-2.0043,-2.0041,-2.0039,-2.0067,0,0,-2.0031,-2.003,0,0,0,0,0,0,0,0,-2.0431,-2.0422,-2.0323,-2.0316,-2.0308,-2.0227,-2.0271,-2.0201,-2.016,-2.0214,-2.0155,-2.0152,-2.0105,-2.0098,-2.0082,-2.0062,-2.0057,-2.0031,-2.0029,-2.0028,-2.0028,0,0,0,0,0,0,0,-2.0436,-2.0426,-2.0338,-2.0322,-2.0312,-2.0287,-2.0274,-2.0257,-2.0173,-2.0209,-2.0201,-2.019,-2.0101,-2.0084,-2.0078,-2.0055,-2.0031,-2.0029,-2.0027,-2.0026,-2.006,-2.0063,0,0,0,0,0,0,-2.0452,-2.0431,-2.0341,-2.0334,-2.0365,-2.0286,-2.0272,-2.0255,-2.0173,-2.0159,-2.0192,-2.0185,-2.009,-2.0081,-2.0074,-2.0106,-2.0028,-2.0026,-2.0025,-2.0058,-2.0061,-2.0063,0,0,0,0,0,0,-2.0455,-2.0445,-2.0346,-2.0381,-2.0366,-2.0287,-2.0269,-2.0254,-2.0237,-2.016,-2.0145,-2.019,-2.0088,-2.0077,-2.0071,-2.01,-2.0025,-2.0023,-2.0055,-2.0059,-2.0062,-2.0168,0,0,0,0,0,0,-2.0459,-2.0446,-2.0455,-2.0382,-2.0365,-2.0343,-2.027,-2.0253,-2.0233,-2.0223,-2.0154,-2.0141,-2.0085,-2.0075,-2.0069,-2.0095,-2.0021,-2.0052,-2.0057,-2.0061,-2.0161,-2.0174,-2.0186,0,0,0,0,0,-2.0463,-2.0487,-2.0456,-2.0445,-2.0373,-2.0345,-2.0335,-2.0271,-2.0236,-2.0245,-2.0197,-2.0143,-2.0099,-2.0076,-2.0067,-2.0094,-2.005,-2.0055,-2.0061,-2.0156,-2.0172,-2.0185,0,0,0,0,0,0,-2.0564,-2.0476,-2.044,-2.0441,-2.0402,-2.0327,-2.0335,-2.0289,-2.0258,-2.025,-2.0172,-2.0157,-2.0161,-2.0126,-2.0103,-2.0121,-2.0067,-2.0071,-2.0142,-2.0157,-2.0169,-2.0177,-2.0019,0,0,0,0,0,-2.0587,-2.057,-2.0495,-2.0503,-2.0486,-2.0415,-2.04,-2.0354,-2.031,-2.0292,-2.0243,-2.0203,-2.0181,-2.0167,-2.0141,-2.0157,-2.0142,-2.0171,-2.0183,-2.0194,-2.0198,-2.0209,-2.0222,-2.0081,-2.0081,-2.0081,0,0,-2.0632,-2.0583,-2.0577,-2.0522,-2.0486,-2.0473,-2.0401,-2.0388,-2.0379,-2.029,-2.0282,-2.0246,-2.0196,-2.0202,-2.0202,-2.0173,-2.0235,-2.0201,-2.021,-2.0208,-2.0216,-2.0229,-2.0241,-2.0085,-2.0084,-2.0083,0,0,-2.071,-2.0669,-2.0674,-2.0641,-2.0589,-2.0542,-2.0544,-2.0478,-2.045,-2.0441,-2.0377,-2.0365,-2.0326,-2.0295,-2.0274,-2.0349,-2.03,-2.0343,-2.0406,-2.0418,-2.0429,-2.0439,-2.0468,-2.0479,-2.0347,-2.0348,-2.0348,0,-2.0773,-2.0749,-2.0682,-2.0676,-2.0656,-2.0578,-2.0584,-2.0555,-2.0498,-2.0487,-2.0456,-2.041,-2.0371,-2.0371,-2.039,-2.0375,-2.0377,-2.0349,-2.0433,-2.0442,-2.045,-2.0477,-2.0488,-2.0353,-2.0353,-2.0352,-2.0352,0,-2.0832,-2.0818,-2.0828,-2.0777,-2.0758,-2.0758,-2.0693,-2.0683,-2.0641,-2.06,-2.0595,-2.0546,-2.0512,-2.0509,-2.0466,-2.0505,-2.049,-2.0447,-2.0392,-2.047,-2.0495,-2.0504,-2.0362,-2.036,-2.0358,-2.0356,0,0,-2.0964,-2.0881,-2.0886,-2.0864,-2.0804,-2.0792,-2.0792,-2.076,-2.0754,-2.0719,-2.0718,-2.0691,-2.0653,-2.063,-2.0584,-2.0594,-2.0662,-2.0551,-2.0549,-2.0575,-2.0706,-2.0739,-2.0752,-2.063,-2.0631,-2.0633,-2.0711,0,-2.1033,-2.1025,-2.0968,-2.0978,-2.0966,-2.0896,-2.0896,-2.0861,-2.0824,-2.081,-2.0769,-2.0752,-2.0702,-2.0688,-2.0695,-2.0652,-2.0687,-2.0645,-2.063,-2.063,-2.0645,-2.0764,-2.0797,-2.0874,-2.072,-2.0721,-2.0723,0,-2.1109,-2.1082,-2.1091,-2.1037,-2.103,-2.1031,-2.1,-2.0987,-2.0948,-2.0921,-2.0899,-2.0849,-2.0847,-2.0797,-2.0796,-2.0769,-2.076,-2.0739,-2.0741,-2.0737,-2.0681,-2.0765,-2.0896,-2.0908,-2.0736,-2.0735,-2.0734,0,-2.1209,-2.1174,-2.1176,-2.116,-2.1095,-2.1099,-2.1072,-2.1031,-2.1018,-2.0992,-2.0983,-2.0957,-2.0943,-2.0926,-2.0872,-2.0839,-2.0879,-2.0822,-2.0858,-2.086,-2.0868,-2.0868,-2.1001,-2.0862,-2.0862,-2.0861,-2.0861,0,-2.1291,-2.13,-2.1221,-2.1223,-2.1233,-2.1169,-2.1182,-2.1148,-2.1114,-2.111,-2.1048,-2.1046,-2.0974,-2.0965,-2.0924,-2.0932,-2.0925,-2.0905,-2.0894,-2.0911,-2.0914,-2.0904,-2.0897,-2.0864,-2.0864,-2.0863,-2.0863,0,-2.1402,-2.1349,-2.1348,-2.129,-2.1276,-2.1286,-2.1237,-2.1238,-2.1199,-2.1195,-2.1191,-2.1131,-2.1118,-2.1063,-2.1036,-2.1008,-2.1031,-2.1008,-2.1044,-2.1037,-2.1077,-2.1075,-2.1208,-2.1224,-2.1074,-2.1075,-2.1077,0,-2.1458,-2.1464,-2.1408,-2.1402,-2.1379,-2.1368,-2.1356,-2.1296,-2.1285,-2.1245,-2.1252,-2.1235,-2.1217,-2.12,-2.1155,-2.1136,-2.1113,-2.1162,-2.1109,-2.1129,-2.1117,-2.1118,-2.112,-2.1172,-2.1174,-2.1176,-2.1177,0,-2.1564,-2.1539,-2.1523,-2.1501,-2.1488,-2.1467,-2.1441,-2.144,-2.1374,-2.1366,-2.1353,-2.134,-2.1316,-2.13,-2.1275,-2.1249,-2.1204,-2.1195,-2.1202,-2.122,-2.1241,-2.1233,-2.1076,-2.1191,-2.119,-2.1189,-2.1188,-2.1187,-2.165,-2.1655,-2.1618,-2.1604,-2.158,-2.156,-2.1559,-2.1523,-2.1511,-2.1486,-2.1452,-2.1445,-2.1412,-2.1373,-2.1353,-2.1348,-2.1321,-2.1331,-2.1334,-2.1338,-2.1348,-2.1243,-2.1343,-2.1342,-2.1342,-2.1341,-2.1341,0,-2.1755,-2.173,-2.1718,-2.1687,-2.1678,-2.1637,-2.1609,-2.1604,-2.1599,-2.1572,-2.1558,-2.1546,-2.1533,-2.1489,-2.1472,-2.1477,-2.1456,-2.1475,-2.1474,-2.147,-2.1371,-2.1367,-2.1492,-2.1492,-2.1492,-2.1492,-2.1492,-2.1492,-2.1808,-2.1815,-2.1788,-2.1784,-2.1758,-2.1751,-2.174,-2.1722,-2.1701,-2.1691,-2.168,-2.1652,-2.162,-2.1601,-2.1589,-2.1577,-2.1574,-2.16,-2.1582,-2.149,-2.1476,-2.1462,-2.1458,-2.16,-2.16,-2.1681,-2.1681,-2.1682]},{"header":{"parameterUnit":"m.s-1","parameterCategory":1,"la1":30.2991,"la2":30.254,"lo1":-89.0895,"lo2":-89.0444,"dy":0.0017,"dx":0.0017,"nx":28,"ny":28,"refTime":"2024-08-31T21:00:00:Z","depth":0,"parameterNumber":3,"parameterNumberName":"V-component_of_WINDS"},"data":[0,0,0,0,0,0,0,0,0,0,0,0,0,0,0,0,0,0,0,0,0,0,0,0,0,0,0,0,0,0,0,0,0,0,0,0,0,0,0,0,0,0,0,0,0,0,0,0,0,0,0,0,0,0,0,0,0,0,2.02,2.02,0,2.0234,2.0235,2.0235,2.0269,2.027,2.027,2.027,2.0302,2.0303,2.0303,0,0,0,0,0,0,0,0,0,0,0,0,0,2.0159,2.0159,2.02,2.0201,2.0201,2.0234,2.0235,2.0235,2.0269,2.027,2.027,2.0271,2.0302,2.0303,2.0303,0,0,0,0,0,0,0,0,0,0,0,0,0,2.0183,2.0159,2.02,2.0222,2.0224,2.0234,2.0235,2.0235,2.0269,2.027,2.027,2.0271,2.0302,2.0303,2.0303,2.0294,0,0,2.0305,2.0306,0,0,0,0,0,0,0,0,2.0182,2.0185,2.0218,2.022,2.0223,2.0248,2.0232,2.0255,2.0269,2.0252,2.027,2.0271,2.0284,2.0286,2.0291,2.0295,2.0297,2.0305,2.0306,2.0306,2.0306,0,0,0,0,0,0,0,2.018,2.0183,2.0214,2.0219,2.0222,2.0228,2.0232,2.0236,2.0263,2.0253,2.0256,2.026,2.0285,2.029,2.0292,2.0297,2.0305,2.0306,2.0306,2.0307,2.0292,2.0291,0,0,0,0,0,0,2.0175,2.0182,2.0213,2.0215,2.0204,2.0228,2.0233,2.0239,2.0263,2.0268,2.0259,2.0261,2.0289,2.0291,2.0293,2.0281,2.0306,2.0307,2.0307,2.0293,2.0292,2.0291,0,0,0,0,0,0,2.0174,2.0178,2.0211,2.0199,2.0204,2.0228,2.0235,2.024,2.0245,2.0268,2.0272,2.0259,2.0289,2.0292,2.0293,2.0283,2.0307,2.0308,2.0294,2.0292,2.0291,2.0258,0,0,0,0,0,0,2.0173,2.0177,2.0175,2.0199,2.0204,2.0212,2.0235,2.024,2.0246,2.0249,2.0269,2.0273,2.029,2.0292,2.0293,2.0284,2.0308,2.0294,2.0293,2.0292,2.026,2.0256,2.0252,0,0,0,0,0,2.0172,2.0165,2.0175,2.0179,2.0202,2.0211,2.0214,2.0234,2.0245,2.0242,2.0257,2.0273,2.0284,2.0291,2.0294,2.0284,2.0295,2.0293,2.0292,2.0262,2.0257,2.0253,0,0,0,0,0,0,2.014,2.0168,2.018,2.0181,2.0193,2.0217,2.0214,2.0229,2.0238,2.024,2.0263,2.0268,2.0265,2.0275,2.0283,2.0274,2.0291,2.029,2.0268,2.0263,2.026,2.0257,2.0309,0,0,0,0,0,2.0133,2.0139,2.0163,2.0161,2.0167,2.0189,2.0194,2.0208,2.0222,2.0227,2.0241,2.0253,2.0258,2.0262,2.0268,2.0262,2.0265,2.0256,2.0252,2.0249,2.0247,2.0241,2.0237,2.0285,2.0285,2.0285,0,0,2.0118,2.0135,2.0137,2.0155,2.0167,2.017,2.0194,2.0198,2.02,2.0227,2.0228,2.0239,2.0253,2.0249,2.0248,2.0257,2.0235,2.0247,2.0244,2.0244,2.0239,2.0235,2.023,2.0284,2.0284,2.0284,0,0,2.0094,2.0108,2.0107,2.0117,2.0134,2.0149,2.0148,2.0169,2.0177,2.0179,2.0198,2.0201,2.0211,2.0219,2.0225,2.02,2.0214,2.0202,2.0181,2.0175,2.0171,2.0168,2.0156,2.0152,2.02,2.02,2.02,0,2.0074,2.0082,2.0104,2.0106,2.0112,2.0137,2.0134,2.0143,2.0161,2.0163,2.0174,2.0185,2.0196,2.0193,2.0187,2.0192,2.019,2.0199,2.017,2.0167,2.0164,2.0153,2.0149,2.0198,2.0198,2.0198,2.0199,0,2.0055,2.006,2.0057,2.0073,2.0079,2.0078,2.0098,2.0101,2.0114,2.0127,2.0126,2.014,2.0149,2.015,2.0163,2.0148,2.0152,2.0166,2.0183,2.0157,2.0147,2.0144,2.0195,2.0196,2.0197,2.0197,0,0,2.0013,2.004,2.0038,2.0044,2.0063,2.0066,2.0066,2.0075,2.0075,2.0086,2.0084,2.0091,2.0103,2.0109,2.0123,2.0118,2.0094,2.0131,2.0132,2.0122,2.0075,2.0063,2.0058,2.0103,2.0103,2.0102,2.0072,0,1.999,1.9992,2.001,2.0006,2.0009,2.0031,2.003,2.004,2.0051,2.0054,2.0066,2.0069,2.0086,2.0089,2.0086,2.0097,2.0084,2.01,2.01,2.01,2.0094,2.0054,2.0042,2.0013,2.0069,2.0069,2.0068,0,1.9965,1.9973,1.9969,1.9985,1.9987,1.9986,1.9994,1.9997,2.0008,2.0016,2.0021,2.0036,2.0034,2.0051,2.0048,2.0058,2.0059,2.0064,2.0063,2.0063,2.0081,2.005,2.0005,2.0,2.0063,2.0063,2.0064,0,1.9932,1.9942,1.994,1.9945,1.9964,1.9962,1.997,1.9982,1.9985,1.9991,1.9993,1.9999,2.0002,2.0005,2.002,2.0032,2.0013,2.0032,2.0018,2.0017,2.0012,2.0012,1.9965,2.0016,2.0016,2.0016,2.0016,0,1.9904,1.99,1.9925,1.9923,1.9918,1.9938,1.9932,1.9942,1.9951,1.9951,1.997,1.9969,1.999,1.999,2.0002,1.9995,1.9997,2.0002,2.0004,1.9999,1.9998,1.9999,2.0,2.0015,2.0015,2.0015,2.0015,0,1.9866,1.9883,1.9882,1.9899,1.9903,1.9899,1.9913,1.9911,1.9923,1.9921,1.9922,1.9939,1.994,1.9956,1.996,1.9968,1.9955,1.9963,1.9952,1.9953,1.9937,1.9937,1.9887,1.988,1.9937,1.9937,1.9936,0,1.9847,1.9844,1.986,1.9861,1.9868,1.987,1.9872,1.9891,1.9893,1.9903,1.9899,1.9902,1.9904,1.9904,1.9916,1.9919,1.9925,1.9907,1.9926,1.9919,1.9922,1.9921,1.9919,1.9903,1.9902,1.9902,1.9901,0,1.9809,1.9817,1.9821,1.9826,1.9829,1.9834,1.9841,1.984,1.986,1.986,1.9861,1.9863,1.9867,1.9868,1.9872,1.9878,1.9892,1.9895,1.9892,1.9885,1.9877,1.9879,1.9939,1.9896,1.9897,1.9897,1.9897,1.9898,1.9779,1.9776,1.9786,1.9789,1.9795,1.98,1.9798,1.9808,1.981,1.9814,1.9825,1.9823,1.9831,1.9838,1.9842,1.984,1.9849,1.9844,1.9843,1.9841,1.9836,1.9879,1.9841,1.9841,1.9842,1.9842,1.9842,0,1.9741,1.9748,1.975,1.9757,1.9758,1.9772,1.9778,1.9778,1.9776,1.9783,1.9784,1.9784,1.9784,1.9795,1.9796,1.9792,1.9798,1.9791,1.9791,1.9791,1.983,1.9832,1.9786,1.9786,1.9786,1.9786,1.9786,1.9786,1.9721,1.9716,1.9724,1.9721,1.9728,1.9727,1.9729,1.9732,1.9737,1.9735,1.9735,1.9743,1.975,1.9751,1.9751,1.9754,1.9753,1.9743,1.9748,1.9784,1.9789,1.9794,1.9796,1.9743,1.9743,1.9709,1.9709,1.9709]}]]